Location: Leipzig
(51.3397°N, 12.3731°E)
Time: 20:12:02
(UTC+01:00)

ISS - Pass Details

Date: 24 October 2025
Orbit: 414 x 421 km, 51.6° (Epoch: 07 November)

Event Time Altitude Azimuth Distance (km) Brightness Sun altitude
Exits shadow 05:37:17 67° 118° (ESE) 458 -3.5 -21.3°
Drops below altitude 10° 05:40:22 10° 80° (E) 1,506 0.2 -20.8°
Sets 05:42:29 0° 79° (ENE) 2,374 1.7 -20.5°
